Location: Unspecified
(43.0000°N, 0.0000°E)
Time: 09:52:13
(UTC+00:00)

PicSat - Pass Details

Date: 21 July 2019
Orbit: 486 x 500 km, 97.5° (Epoch: 20 August)

Event Time Altitude Azimuth Distance (km) Brightness Sun altitude
Exits shadow 21:43:31 45° 184° (S) 684 ? -18.6°
Maximum altitude 21:44:31 75° 258° (WSW) 518 ? -18.7°
Drops below altitude 10° 21:48:10 10° 344° (NNW) 1,697 ? -19.1°
Sets 21:50:15 0° 346° (NNW) 2,582 ? -19.3°
